Home   Weather   Truro   Past weeks

Flag for United Kingdom Past Weather in Truro, England, United Kingdom — Yesterday and Last 2 Weeks

Now
48 °F

Passing clouds.


Feels Like: 45 °F
Forecast: 48 / 53 °F
Wind: 8 mph from South

Location: Culdrose

Current Time: Apr 29, 2017 at 9:03:18 am

Latest Report: Apr 29, 2017 at 7:50 am


Visibility: N/A

Pressure: 29.92 "Hg

Humidity: 82%

Dew Point: 43 °F

Location of TruroLocation

Past Weather in Truro — Graph

°F

Truro Temperature Yesterday

Maximum temperature yesterday: 54 °F (at 2:50 pm)
Minimum temperature yesterday: 48 °F (at 12:50 am)
Average temperature yesterday: 50 °F

High & Low Weather Summary for the Past Weeks

 TemperatureHumidityPressure
High59 °F (Apr 23, 12:50 pm)100% (Apr 15, 4:50 am)30.63 "Hg (Apr 15, 4:50 am)
Low34 °F (Apr 27, 5:50 am)37% (Apr 25, 1:50 pm)29.92 "Hg (Apr 29, 6:50 am)
Average48 °F74%30.27 "Hg
* Reported Apr 14 6:50 am — Apr 29 6:50 am, Truro, Weather by CustomWeather, © 2017

Note: Actual official high and low records may vary slightly from our data, if they occured in-between our weather recording intervals... More about our weather records

Advertising

Truro Weather History for the Previous 24 Hours

Scroll right to see more
 ConditionsComfort  
Time TempWeatherWind HumidityBarometerVisibility
6:50 am
Sat, Apr 29
46 °FPassing clouds.8 mph82%29.92 "HgN/A
5:50 am48 °FPassing clouds.9 mph82%29.95 "HgN/A
4:50 am48 °FPassing clouds.10 mph82%29.95 "HgN/A
3:50 am48 °FPassing clouds.13 mph82%29.95 "HgN/A
2:50 am50 °FPassing clouds.10 mph76%29.98 "HgN/A
1:50 am46 °FOvercast.7 mph87%29.98 "HgN/A
12:50 am46 °FOvercast.6 mph82%30.01 "HgN/A
11:50 pm
Fri, Apr 28
48 °FOvercast.6 mph76%30.04 "HgN/A
10:50 pm48 °FPassing clouds.3 mph76%30.04 "HgN/A
9:50 pm48 °FPassing clouds.2 mph76%30.04 "HgN/A
8:50 pm48 °FOvercast.5 mph76%30.04 "HgN/A
7:50 pm50 °FOvercast.6 mph71%30.04 "HgN/A
6:50 pm50 °FOvercast.10 mph67%30.04 "HgN/A
5:50 pm52 °FPartly sunny.12 mph67%30.07 "HgN/A
4:50 pm50 °FPartly sunny.12 mph71%30.07 "HgN/A
3:50 pm54 °FPartly sunny.13 mph54%30.07 "HgN/A
2:50 pm54 °FBroken clouds.8 mph58%30.07 "HgN/A
1:50 pm52 °FBroken clouds.7 mph62%30.09 "HgN/A
12:50 pm52 °FBroken clouds.8 mph62%30.09 "HgN/A
11:50 am52 °FBroken clouds.9 mph54%30.09 "HgN/A
10:50 am52 °FOvercast.7 mph58%30.09 "HgN/A
9:50 am50 °FBroken clouds.6 mph82%30.09 "HgN/A
Weather by CustomWeather, © 2017

See weather overviewHow to use our weather pages